カタログに戻る

STARLINK-32253

運用中通信VLEO
NORAD 60733·PAYLOAD·🇺🇸 United States

打ち上げ Aug 28, 2024 から Cape Canaveral Space Force Station

Loading…

次のパス (今後24時間)

TLE

最新Source: CelesTrak SupGP

元期: Sep 14, 2026, 22:24 UTC

1 60733C 24152P   26257.93381944 -.00002417  00000+0 -71421-4 0  2577
2 60733  53.1567 107.4315 0001219  85.2439 242.5484 15.34385702    11

AllMySatでSTARLINK-32253をリアルタイム追跡

Download on the App Store